Location: ??????
(38.3227°N, 23.7019°E)
Time: 16:03:18
(UTC+00:00)

Daily predictions for brighter satellites

Satellite Brightness Start Highest point End
(mag) Time Altitude Azimuth Time Altitude Azimuth Time Altitude Azimuth
Okean O Rocket 2.1 16:50:26 10° S 16:54:49 66° WSW 16:59:11 10° NNW
CZ-4B R/B 4.0 16:51:07 10° S 16:56:23 58° WSW 17:01:46 10° NNW
USA 215 3.5 16:51:36 10° ESE 16:58:02 61° NE 17:04:29 10° NW
Cosmos 1943 Rocket 3.9 16:59:40 10° ESE 17:00:35 10° E 17:01:31 10° E
Cosmos 968 Rocket 4.1 16:57:46 10° SSE 17:02:24 33° E 17:07:06 10° NE
Cosmos 1743 2.7 17:00:09 10° S 17:03:58 87° E 17:07:51 10° N
Cosmos 1975 4.0 17:01:52 10° SE 17:04:54 21° E 17:07:56 10° NE
Cosmos 1066 Rocket 4.3 16:59:44 10° NNW 17:05:08 79° W 17:10:28 10° S
ERBS 2.2 17:02:13 10° SSW 17:05:28 66° SE 17:08:43 10° NE
Cosmos 1536 4.0 17:04:42 10° SSW 17:08:36 48° W 17:12:31 10° N
BREEZE-M DEB (TANK) 2.6 17:02:04 10° NW 17:09:27 89° SW 17:12:13 10° SE
OBJECT-B 2.8 17:08:44 11° E 17:09:52 12° ENE 17:11:14 10° NE
CZ-2C R/B 3.3 17:08:22 10° N 17:13:45 63° WNW 17:19:14 10° SSW
ISS -3.0 17:13:27 10° SSW 17:16:30 33° SE 17:19:20 12° ENE
Cosmos 921 Rocket 3.9 17:14:36 10° N 17:18:24 29° ENE 17:21:40 12° SE
Meteor 2-9 Rocket 4.5 17:12:55 10° SSE 17:18:29 51° E 17:24:08 10° NNE
USA 281 4.3 17:16:58 10° ENE 17:21:24 19° E 17:25:48 10° SE
SL-4 R/B 2.3 17:19:14 10° NW 17:22:30 38° NNE 17:24:50 17° E
OAO 2 Rocket 3.7 17:18:26 10° WSW 17:23:36 52° S 17:27:38 16° E
H-2A R/B 3.8 17:20:00 10° SSW 17:24:27 34° W 17:29:01 10° NNW
SJ-6B 4.2 17:28:44 18° ESE 17:30:26 23° ENE 17:33:42 10° NNE
Meteor 1-23 Rocket 4.5 17:25:06 10° NNW 17:30:51 76° W 17:36:30 10° S
Cosmos 1842 3.5 17:27:22 10° N 17:31:12 47° E 17:34:59 10° SSE
Cosmos 1400 Rocket 4.3 17:31:48 18° E 17:31:48 18° E 17:34:23 10° NE
YAOGAN 1 3.1 17:31:54 10° S 17:36:09 60° W 17:40:26 10° NNW
Cosmos 2221 Rocket 3.6 17:32:07 10° N 17:36:30 60° E 17:40:50 10° SSE
Cosmos 1378 Rocket 4.4 17:34:09 10° NNE 17:38:04 30° ENE 17:40:00 22° ESE
Meteor 2-12 Rocket 4.5 17:35:28 10° S 17:41:26 57° E 17:47:24 10° NNE
Atlas Centaur 2 4.4 17:37:19 10° S 17:41:46 16° SSE 17:43:46 14° SE
COSMOS 2406 3.2 17:37:04 10° NNW 17:42:52 80° ENE 17:48:36 10° SSE
Cosmos 2074 Rocket 4.1 17:38:23 10° SSE 17:44:23 53° E 17:50:26 10° NNE
Okean-O 2.6 17:40:20 10° SSE 17:44:45 85° WSW 17:49:13 10° NNW
HJ-1C 4.5 17:42:10 10° S 17:45:19 44° W 17:48:29 10° NNW
Inspiration4 2.6 17:41:06 10° SW 17:45:23 89° SE 17:49:12 13° NE
Cosmos 1833 Rocket 2.8 17:41:13 10° NNW 17:46:51 81° WSW 17:52:27 10° SSE
Meteor 1-21 4.3 17:43:59 10° N 17:49:35 56° ENE 17:54:24 14° SSE
Cosmos 1932 4.4 17:43:18 10° SSW 17:49:36 89° ESE 17:55:53 10° NNE
BREEZE-M R/B 4.4 17:46:47 10° WNW 17:50:29 25° NNW 17:53:29 10° NE
Cosmos 1674 Rocket 3.7 17:48:02 10° N 17:52:17 50° E 17:54:30 25° SE
Hubble Space Telescope 2.6 17:52:40 10° SW 17:55:30 18° S 17:56:40 16° SSE
Lacrosse 4 Rocket 3.3 17:52:22 10° WSW 17:55:58 30° WNW 17:59:34 10° N
CSL-04 Rocket 3.6 17:51:18 10° SSE 17:56:35 86° ENE 18:01:58 10° NNW
Cosmos 2082 Rocket 2.3 17:52:09 10° NNW 17:57:48 59° ENE 18:00:52 27° SE
USA 186 2.1 17:58:38 39° NNE 17:58:38 39° NNE 18:00:39 10° N
CZ-4B R/B 2.9 17:55:59 10° N 17:58:46 35° WNW 18:01:35 10° SW
Resurs 01 Rocket 3.5 18:02:47 16° NE 18:02:47 16° NE 18:04:35 10° NNE
USA 276 1.9 17:58:43 10° SW 18:01:43 68° SSE 18:01:43 68° SSE
Cosmos 2181 Rocket 4.1 17:55:59 10° N 18:02:09 78° W 18:08:21 10° S
Okean 2 3.2 18:04:54 10° N 18:08:59 72° E 18:10:11 44° SSE
CZ-4 R/B 4.0 18:09:07 10° SW 18:11:55 19° W 18:14:42 10° NW
Ariane Rocket 3.6 18:12:56 35° ENE 18:13:05 35° ENE 18:17:39 10° N
Helios 1A Rocket 3.4 18:13:27 43° ENE 18:13:27 43° ENE 18:17:04 10° N
Cosmos 1733 Rocket 4.4 18:09:18 10° SSW 18:13:22 40° WNW 18:17:27 10° N
Cosmos 2278 Rocket 4.1 18:10:31 10° WSW 18:15:29 31° WNW 18:20:30 10° N
Cosmos 1340 2.5 18:13:15 10° N 18:17:02 87° E 18:17:23 73° SSE
CSL-04 DEB 4.1 18:13:21 10° NNE 18:17:20 79° ESE 18:18:50 36° S
Cosmos 2297 3.6 18:12:33 10° S 18:18:07 65° ESE 18:23:46 10° NNE
Cosmos 2184 Rocket 4.1 18:15:52 10° S 18:22:13 80° W 18:28:36 10° N
MOS 1 4.3 18:25:18 48° ESE 18:26:26 57° ENE 18:31:59 10° N
Resurs 1-3 3.7 18:28:58 57° NE 18:28:58 57° NE 18:32:51 10° N
SeaSat 1 3.2 18:25:36 20° S 18:28:43 48° WSW 18:33:30 10° NW
Cosmos 1503 Rocket 3.8 18:25:01 10° SSW 18:30:15 84° ESE 18:35:28 10° NNE
ATLAS 2A CENTAUR R/B 4.3 18:35:30 10° SW 18:35:42 10° SW 18:35:42 10° SW
COSMOS 2455 3.4 18:30:33 10° NNW 18:36:14 41° NE 18:36:25 41° ENE
Cosmos 2327 Rocket 4.3 18:31:54 10° S 18:38:03 87° E 18:44:21 10° N
Cosmos 2154 Rocket 4.0 18:33:36 10° S 18:39:56 84° W 18:46:20 10° N
Cosmos 1238 Rocket 4.2 18:34:10 10° SSW 18:40:42 72° W 18:47:02 10° N
Cosmos 1610 Rocket 4.4 18:34:44 10° S 18:41:03 86° W 18:47:19 10° N
USA 215 4.4 18:37:01 18° S 18:41:11 36° SW 18:47:09 10° WNW
OBJECT-B 2.7 18:41:40 27° W 18:41:40 27° W 18:44:28 10° NW
Cosmos 1354 Rocket 3.9 18:36:32 10° SSW 18:41:48 89° ESE 18:47:05 10° NNE
Cosmos 1943 Rocket 2.1 18:37:54 10° SSW 18:43:26 87° WNW 18:49:03 10° NNE
Cosmos 1707 3.6 18:40:15 10° NNW 18:44:01 46° W 18:44:05 46° W
EO 1 Delta rocket 4.3 18:46:28 51° NNE 18:46:28 51° NNE 18:50:12 10° N
Lacrosse 5 rocket 4.0 18:50:49 10° N 18:52:32 13° NNE 18:52:32 13° NNE
ISS -1.3 18:50:26 10° W 18:52:24 23° WNW 18:52:24 23° WNW
Meteor 1-12 Rocket 4.3 18:57:30 70° S 18:58:15 90° WNW 19:04:19 10° N
SL-4 R/B 4.2 18:59:00 10° WNW 19:00:24 18° W 19:00:24 18° W
Nadezhda 3 Rocket 4.2 18:59:57 10° NNW 19:06:02 66° W 19:07:20 53° SSW
USA 281 3.3 18:59:49 10° NNE 19:06:21 72° WNW 19:12:52 10° SSW
OAO 2 Rocket 4.4 19:03:00 10° W 19:06:34 40° WSW 19:06:34 40° WSW
Cosmos 2341 Rocket 4.1 19:18:42 69° N 19:18:42 69° N 19:24:15 10° N
ATLAS CENTAUR R/B 3.7 19:15:14 10° NNW 19:17:09 22° N 19:17:09 22° N
CZ-3 Stage 3 3.8 19:11:55 10° WSW 19:27:42 41° SSW 19:27:42 41° SSW
Resurs 01 Rocket 4.0 19:40:22 21° NW 19:40:22 21° NW 19:42:02 10° NNW
Cosmos 2082 Rocket 4.4 19:37:40 10° WNW 19:41:18 18° W 19:42:45 16° WSW
